Tracking 18852 objects as of 24-Nov-2017
HD Live streaming from Space Station
objects crossing your sky now

FENGYUN 1C DEB

Track FENGYUN 1C DEB now!
10-day predictions


NORAD ID: 30234
Int'l Code: 1999-025WT
Perigee: 803.9 km
Apogee: 904.0 km
Inclination: 98.9 °
Period: 101.9 minutes
Semi major axis: 7224 km
RCS: 0.037 m2 (small)
Launch date: May 10, 1999
Source: People's Republic of China (PRC)
Launch site: Taiyaun Space Center, China (TSC)

Note: This is SATELLITE DEBRIS
aabbcc
Your satellite tracking list
Your tracking list is empty




NASA's NSSDC Master Catalog

Two Line Element Set (TLE):
1 30234U 99025WT  17328.04506701 +.00000163 +00000-0 +10715-3 0  9998
2 30234 098.9016 354.7240 0069280 181.4165 232.3136 14.13680771558818
Source of the keplerian elements: AFSPC